User: anonymous   Login
Location: *
(33.8649°S, 62.1526°E)
Time: 05:07:55
(UTC+00:00)
Language:

Cosmos 2360 Rocket - Orbit

View from above orbital plane
View from above orbital plane
View from above satellite
View from above satellite

Ground track
Ground track

The orbit data is extracted from the following two-line orbital elements,

1 25407U 98045B   21112.79191674 -.00000099  00000-0 -25998-4 0  9992
2 25407  71.0112 327.4807 0009190 231.7138 128.3160 14.15834799175136
Epoch (UTC): 22 April 2021 19:00:21
Eccentricity: 0.0009190
inclination: 71.0112°
perigee height: 833 km
apogee height: 846 km
right ascension of ascending node: 327.4807°
argument of perigee: 231.7138°
revolutions per day: 14.15834799
mean anomaly at epoch: 128.3160°
orbit number at epoch: 17513

The dashed part of the orbit path shows where the satellite is in the earth's shadow,  

DLR